Location: Oshawa
(43.9000°N, 78.8670°W)
Time: 19:29:28
(UTC-04:00)

Cosmos 1408 Rocket - Visible Passes

Search period start: 31 July 2015 00:00
Search period end: 10 August 2015 00:00
Orbit: 601 x 632 km, 82.6° (Epoch: 31 July)

Date Brightness Start Highest point End Pass type
(mag) Time Alt. Az. Time Alt. Az. Time Alt. Az.
31 Jul 5.0 01:40:53 10° NNE 01:44:30 30° ENE 01:44:30 30° ENE visible
31 Jul 5.1 03:18:57 10° NW 03:21:36 22° WNW 03:21:36 22° WNW visible
01 Aug 4.3 01:57:15 10° N 02:00:49 49° NE 02:00:49 49° NE visible
01 Aug 5.8 03:36:46 10° NW 03:37:54 12° WNW 03:37:54 12° WNW visible
02 Aug 4.2 02:13:51 10° N 02:17:09 51° NNW 02:17:09 51° NNW visible
03 Aug 5.7 00:53:48 10° NNE 00:56:24 17° ENE 00:56:24 17° ENE visible
03 Aug 4.8 02:30:41 10° NNW 02:33:29 33° NW 02:33:29 33° NW visible
04 Aug 5.2 01:09:46 10° NNE 01:12:45 28° NE 01:12:45 28° NE visible
04 Aug 5.4 02:47:49 10° NW 02:49:51 20° WNW 02:49:51 20° WNW visible
05 Aug 4.7 01:26:08 10° N 01:29:08 39° NNE 01:29:08 39° NNE visible
05 Aug 6.0 03:05:35 10° NW 03:06:13 12° WNW 03:06:13 12° WNW visible
06 Aug 4.7 01:42:43 10° N 01:45:31 39° NNW 01:45:31 39° NNW visible
07 Aug 5.8 00:22:41 10° NNE 00:24:49 17° NE 00:24:49 17° NE visible
07 Aug 5.2 01:59:32 10° NNW 02:01:54 28° NW 02:01:54 28° NW visible
08 Aug 5.3 00:38:39 10° NNE 00:41:13 25° NE 00:41:13 25° NE visible
08 Aug 5.7 02:16:40 10° NW 02:18:19 18° NW 02:18:19 18° NW visible
09 Aug 5.0 00:54:59 10° N 00:57:38 34° NNE 00:57:38 34° NNE visible
09 Aug 6.1 02:34:23 10° NW 02:34:44 11° WNW 02:34:44 11° WNW visible
